LIBRLIBD

Guest
Details From LIBR - BRINDISI/Casale
To LIBD - Bari Palese Macchie
Flight Number -
Tags generated
Created
Modified
Stats Distance 61 nm / 113 km
Max Altitude 10,300 ft / 3,139 m
Waypoints 3
Social Downloads 9
Likes 0
Share VATSIM

Download

Looking for another format? Having issues loading an existing format? Contact us
Advertisement - Login to hide

Notes

Basic altitude profile: - Ascent Rate: 2500ft/min - Ascent Speed: 250kts - Cruise Altitude: 30000ft - Cruise Speed: 300kts - Descent Rate: 1500ft/min - Descent Speed: 250kts

Route

LIBR FASAN LIBD

ID Type Via Altitude Latitude Longitude Leg Dist Tot Dist Heading (true) Name
O LIBR APT - 0 ft / 0 m 40.66082˚ 17.94267˚ - 0 nm - BRINDISI/Casale
FASAN FIX - 10,300 ft / 3,139 m 40.86389˚ 17.42694˚ 26 nm 26 nm 298° / 297° -
O LIBD APT - 0 ft / 0 m 41.13787˚ 16.75832˚ 34 nm 60 nm 299° / 298° Bari Palese Macchie

Altitude Profile

Advertisement - Login to hide

LIBR

Details ICAO LIBR (BDS)
Name BRINDISI/Casale
Region Italy
Timezone Europe/Rome (UTC+2.0)
Stats Elevation 47 ft / 14 m (AMSL)
Location 40.660824° 17.942673°
Runways 2
Magnetic Variation 3.934° E

METAR

LIBR 212250Z 24003KT CAVOK 19/18 Q1012

Decode

TAF

TAF LIBR 211700Z 2118/2218 VRB05KT 9999 FEW040 BECMG 2207/2209 12010KT TEMPO 2212/2218 TSRA BECMG 2215/2218 VRB05KT

Decode

Departure Runways

ID Width Length Bearing (true) Bearing (mag) Surface Threshold Offset Overrun Length
13 148 ft / 45 m 9,398 ft / 2,865 m 136.56° 132.63° Asphalt 0 ft / 0 m 689 ft / 210 m
23 148 ft / 45 m 6,129 ft / 1,868 m 232.52° 228.59° Asphalt 230 ft / 70 m 0 ft / 0 m
31 148 ft / 45 m 9,398 ft / 2,865 m 316.58° 312.65° Asphalt 0 ft / 0 m 387 ft / 118 m
5 148 ft / 45 m 6,129 ft / 1,868 m 52.51° 48.58° Asphalt 0 ft / 0 m 0 ft / 0 m

LIBD

Details ICAO LIBD (BRI)
Name Bari Palese Macchie
Region Italy
Timezone Europe/Rome (UTC+2.0)
Stats Elevation 177 ft / 54 m (AMSL)
Location 41.137865° 16.758318°
Runways 1
Magnetic Variation 3.782° E

METAR

LIBD 212250Z 22004KT 7000 NSC 18/17 Q1013

Decode

TAF

TAF LIBD 211700Z 2118/2218 VRB05KT 9999 FEW030 BECMG 2209/2211 02010KT TEMPO 2212/2218 TSRA BECMG 2215/2218 VRB05KT

Decode

Destination Runways

ID Width Length Bearing (true) Bearing (mag) Surface Threshold Offset Overrun Length
07 148 ft / 45 m 9,262 ft / 2,823 m 69.39° 65.61° Asphalt 1,257 ft / 383 m 0 ft / 0 m
25 148 ft / 45 m 9,262 ft / 2,823 m 249.42° 245.64° Asphalt 0 ft / 0 m 194 ft / 59 m

Approach Navaids

Runway Type Ident Frequency Range Bearing (true) Bearing (mag) Slope Elevation
07 Localiser BAP 111.35 MHz 18 nm / 33 km 69.25° 65.47° - 177 ft / 54 m (AMSL)
07 Glidescope BAP 111.35 MHz 10 nm / 19 km 69.25° 65.47° 3.32° 177 ft / 54 m (AMSL)
07 DME BAP 111.35 MHz 18 nm / 33 km - - - 183 ft / 56 m (AMSL)

Popular Alternatives